Location: Jackson Park
(37.2862°N, 79.9123°W)
Time: 22:15:18
(UTC+00:00)

Transit 4A - Pass Details

Date: 18 May 2026
Orbit: 861 x 980 km, 66.8° (Epoch: 5 June)

Event Time Altitude Azimuth Distance (km) Brightness Sun altitude
Rises 10:45:19 0° 159° (SSE) 3,517 10.9 5.9°
Reaches altitude 10° 10:48:48 10° 138° (SE) 2,606 10.6 6.6°
Maximum altitude 10:52:18 16° 102° (ESE) 2,228 11.1 7.2°
Drops below altitude 10° 10:55:53 10° 67° (ENE) 2,665 13.5 7.9°
Sets 10:59:29 0° 47° (NE) 3,637 12.3 8.6°
